Starlink 5412

operational
NORAD ID: 54806 Int'l Des: 2022-175 Owner: SPXS Country: US Constellation: starlink
LEOCIRCULAR

Starlink 5412について

説明を読み込み中...

リアルタイム位置

3D地球を読み込み中...

次回通過

高度履歴

Altitude vs Time

uPlot chart will show altitude changes over time

軌道要素

1 54806U 22175BA 26036.08863949 .00002880 00000-0 19892-3 0 9994
2 54806 53.2166 175.0673 0001243 90.0479 270.0655 15.08845970175214
Epoch: Feb 5, 2026 • Age: 16 hours

現在のステータス

高度 544.9 km
速度 7.60 km/s
衛星直下点 50.83°N, 127.12°W
打ち上げ日 Dec 17, 2022
運用期間 3.1 years
タイプ internet

技術仕様

分類 Payload
質量 305.00 kg
乾燥質量 290.00 kg
総質量 305.00 kg
長さ 0.20 m
直径 2.80 m
スパン 9.00 m
形状 Box + pan
製造者 SPXS
バスタイプ Starlink
フェーズステータス In Orbit
所有者/国 SPXS/US

大規模コンステレーション

Loading constellations...